Benson, MN

9:35 AM CDT on October 01, 2016 (GMT -0500)
Benson Municipal

Weather History for KBBB - November, 2012

Change the Weather History Date:

Thursday, November 15, 2012

  Actual Average Record
Temperature  
Mean Temperature 28 °F -  
Max Temperature 39 °F 40 °F 68 °F (1953)
Min Temperature 17 °F 22 °F -9 °F (2014)
Degree Days  
Heating Degree Days 37    
Moisture  
Dew Point 25 °F    
Average Humidity 80    
Maximum Humidity 100    
Minimum Humidity 48    
Precipitation  
Precipitation 0.00 in - - ()
Sea Level Pressure  
Sea Level Pressure 30.29 in    
Wind  
Wind Speed 6 mph (North)    
Max Wind Speed 18 mph    
Max Gust Speed 25 mph    
Visibility 10 miles    
Events      
Averages and records for this station are not official NWS values.
T = Trace of Precipitation, MM = Missing Value Source: NWS Daily Summary

Daily Weather History Graph

Daily Weather History Graph

Search for Another Location

Airport or City:

Trip Planner

Search our weather history database for the weather conditions in past years. The results will help you decide how hot, cold, wet, or windy it might be!

Date:

Astronomy

Nov. 15, 2012 Rise Set
Actual Time 7:21 AM CST 4:52 PM CST
Civil Twilight 6:49 AM CST 5:24 PM CST
Nautical Twilight 6:13 AM CST 6:00 PM CST
Astronomical Twilight 5:39 AM CST 6:34 PM CST
Moon 9:22 AM CST (11/15) 6:41 PM CST (11/15)
Length of Visible Light 10h 34m
Length of Day
9h 30m
Waxing Crescent, 5% of the Moon is Illuminated
Nov 15
Waxing Crescent
Nov 20
First Quarter
Nov 28
Full
Dec 6
Last Quarter
Dec 13
New

Hourly Weather History & Observations

Time (CST) Temp. Windchill Dew Point Humidity Pressure Visibility Wind Dir Wind Speed Gust Speed Precip Events Conditions
12:13 AM 39.2 °F - 33.8 °F 81% 30.09 in 10.0 mi Calm Calm - N/A   Overcast
12:33 AM 39.2 °F 37.0 °F 33.8 °F 81% 30.09 in 10.0 mi South 3.5 mph - N/A   Overcast
12:52 AM 39.2 °F 37.0 °F 33.8 °F 81% 30.08 in 10.0 mi SSE 3.5 mph - N/A   Mostly Cloudy
1:13 AM 37.4 °F 33.8 °F 32.0 °F 81% 30.08 in 10.0 mi South 4.6 mph - N/A   Clear
1:33 AM 37.4 °F 33.8 °F 32.0 °F 81% 30.07 in 10.0 mi South 4.6 mph - N/A   Mostly Cloudy
1:52 AM 37.4 °F 33.8 °F 33.8 °F 87% 30.08 in 10.0 mi South 4.6 mph - N/A   Overcast
2:13 AM 37.4 °F - 32.0 °F 81% 30.08 in 10.0 mi Calm Calm - N/A   Overcast
2:32 AM 35.6 °F - 30.2 °F 81% 30.09 in 10.0 mi Calm Calm - N/A   Mostly Cloudy
2:52 AM 33.8 °F - 30.2 °F 87% 30.09 in 10.0 mi Calm Calm - N/A   Mostly Cloudy
3:13 AM 30.2 °F - 28.4 °F 93% 30.09 in 10.0 mi Calm Calm - N/A   Scattered Clouds
3:32 AM 30.2 °F - 28.4 °F 93% 30.09 in 7.0 mi Calm Calm - N/A   Clear
3:52 AM 30.2 °F - 30.2 °F 100% 30.10 in 7.0 mi Calm Calm - N/A   Clear
4:13 AM 28.4 °F - 26.6 °F 93% 30.11 in 5.0 mi Calm Calm - N/A   Clear
4:53 AM 28.4 °F 24.6 °F 26.6 °F 93% 30.12 in 5.0 mi North 3.5 mph - N/A   Clear
5:13 AM 28.4 °F 24.6 °F 26.6 °F 93% 30.12 in 5.0 mi NNW 3.5 mph - N/A   Clear
5:32 AM 26.6 °F - 26.6 °F 100% 30.13 in 7.0 mi Calm Calm - N/A   Clear
5:53 AM 26.6 °F 21.2 °F 24.8 °F 93% 30.13 in 7.0 mi NNW 4.6 mph - N/A   Clear
6:13 AM 26.6 °F 18.2 °F 26.6 °F 100% 30.15 in 10.0 mi NNW 8.1 mph - N/A   Clear
6:32 AM 28.4 °F 20.4 °F 28.4 °F 100% 30.16 in 10.0 mi North 8.1 mph - N/A   Clear
6:53 AM 30.2 °F 22.6 °F 28.4 °F 93% 30.17 in 10.0 mi North 8.1 mph - N/A   Clear
7:12 AM 30.2 °F 21.9 °F 28.4 °F 93% 30.18 in 10.0 mi North 9.2 mph - N/A   Clear
7:32 AM 30.2 °F 22.6 °F 28.4 °F 93% 30.20 in 10.0 mi North 8.1 mph - N/A   Clear
7:53 AM 30.2 °F 21.9 °F 28.4 °F 93% 30.21 in 10.0 mi North 9.2 mph - N/A   Clear
8:12 AM 32.0 °F 23.6 °F 28.4 °F 87% 30.22 in 10.0 mi North 10.4 mph - N/A   Clear
8:33 AM 33.8 °F 23.9 °F 30.2 °F 87% 30.23 in 10.0 mi North 15.0 mph 20.7 mph N/A   Clear
8:53 AM 33.8 °F 24.8 °F 30.2 °F 87% 30.25 in 10.0 mi North 12.7 mph 20.7 mph N/A   Clear
9:12 AM 33.8 °F 23.5 °F 30.2 °F 87% 30.26 in 10.0 mi North 16.1 mph 21.9 mph N/A   Clear
9:33 AM 33.8 °F 24.8 °F 28.4 °F 81% 30.27 in 10.0 mi North 12.7 mph - N/A   Clear
9:53 AM 35.6 °F 25.9 °F 28.4 °F 75% 30.28 in 10.0 mi North 16.1 mph - N/A   Clear
10:12 AM 35.6 °F 26.2 °F 28.4 °F 75% 30.29 in 10.0 mi North 15.0 mph - N/A   Clear
10:33 AM 35.6 °F 26.2 °F 28.4 °F 75% 30.30 in 10.0 mi North 15.0 mph 21.9 mph N/A   Clear
10:53 AM 37.4 °F 27.8 °F 28.4 °F 70% 30.31 in 10.0 mi North 17.3 mph 21.9 mph N/A   Clear
11:12 AM 37.4 °F 28.9 °F 28.4 °F 70% 30.32 in 10.0 mi North 13.8 mph 19.6 mph N/A   Clear
11:33 AM 39.2 °F 32.0 °F 28.4 °F 65% 30.32 in 10.0 mi NNE 11.5 mph 17.3 mph N/A   Clear
11:52 AM 39.2 °F 30.5 °F 28.4 °F 65% 30.32 in 10.0 mi North 16.1 mph - N/A   Clear
12:12 PM 39.2 °F 30.5 °F 28.4 °F 65% 30.33 in 10.0 mi North 16.1 mph 21.9 mph N/A   Clear
12:33 PM 39.2 °F 32.0 °F 28.4 °F 65% 30.33 in 10.0 mi North 11.5 mph 19.6 mph N/A   Clear
12:52 PM 39.2 °F 30.2 °F 26.6 °F 61% 30.34 in 10.0 mi NNE 17.3 mph - N/A   Clear
1:12 PM 39.2 °F 29.8 °F 26.6 °F 61% 30.35 in 10.0 mi North 18.4 mph 24.2 mph N/A   Clear
1:33 PM 39.2 °F 30.2 °F 26.6 °F 61% 30.35 in 10.0 mi North 17.3 mph 25.3 mph N/A   Clear
1:52 PM 39.2 °F 29.8 °F 26.6 °F 61% 30.35 in 10.0 mi North 18.4 mph 24.2 mph N/A   Clear
2:13 PM 39.2 °F 30.5 °F 24.8 °F 56% 30.36 in 10.0 mi North 16.1 mph 21.9 mph N/A   Clear
2:33 PM 39.2 °F 30.8 °F 24.8 °F 56% 30.36 in 10.0 mi North 15.0 mph 21.9 mph N/A   Clear
2:52 PM 39.2 °F 30.5 °F 23.0 °F 52% 30.37 in 10.0 mi North 16.1 mph 21.9 mph N/A   Clear
3:13 PM 37.4 °F 28.2 °F 19.4 °F 48% 30.38 in 10.0 mi North 16.1 mph 20.7 mph N/A   Clear
3:33 PM 37.4 °F 28.9 °F 19.4 °F 48% 30.39 in 10.0 mi North 13.8 mph 19.6 mph N/A   Clear
3:52 PM 35.6 °F 28.0 °F 19.4 °F 52% 30.39 in 10.0 mi North 10.4 mph - N/A   Clear
4:13 PM 35.6 °F 28.6 °F 19.4 °F 52% 30.40 in 10.0 mi North 9.2 mph - N/A   Clear
4:32 PM 33.8 °F 27.0 °F 19.4 °F 56% 30.41 in 10.0 mi North 8.1 mph - N/A   Clear
4:53 PM 30.2 °F 23.4 °F 19.4 °F 64% 30.42 in 10.0 mi North 6.9 mph - N/A   Clear
5:13 PM 28.4 °F 20.4 °F 19.4 °F 69% 30.42 in 10.0 mi North 8.1 mph - N/A   Clear
5:53 PM 26.6 °F 19.1 °F 19.4 °F 74% 30.43 in 10.0 mi North 6.9 mph - N/A   Clear
6:13 PM 24.8 °F 16.1 °F 19.4 °F 80% 30.43 in 10.0 mi North 8.1 mph - N/A   Clear
6:32 PM 24.8 °F 19.1 °F 19.4 °F 80% 30.43 in 10.0 mi NNW 4.6 mph - N/A   Clear
6:53 PM 23.0 °F 17.0 °F 19.4 °F 86% 30.43 in 10.0 mi North 4.6 mph - N/A   Clear
7:32 PM 19.4 °F 8.6 °F 17.6 °F 93% 30.44 in 10.0 mi NNW 9.2 mph - N/A   Clear
7:53 PM 21.2 °F 11.7 °F 19.4 °F 93% 30.44 in 10.0 mi North 8.1 mph - N/A   Clear
8:13 PM 21.2 °F 10.9 °F 17.6 °F 86% 30.44 in 10.0 mi North 9.2 mph - N/A   Clear
8:32 PM 19.4 °F 11.5 °F 17.6 °F 93% 30.44 in 10.0 mi North 5.8 mph - N/A   Clear
8:53 PM 21.2 °F 13.6 °F 17.6 °F 86% 30.44 in 10.0 mi North 5.8 mph - N/A   Clear
9:12 PM 19.4 °F 8.6 °F 17.6 °F 93% 30.45 in 10.0 mi North 9.2 mph - N/A   Clear
9:32 PM 19.4 °F 11.5 °F 17.6 °F 93% 30.46 in 10.0 mi North 5.8 mph - N/A   Clear
9:53 PM 19.4 °F 10.4 °F 17.6 °F 93% 30.46 in 10.0 mi North 6.9 mph - N/A   Clear
10:12 PM 19.4 °F - 17.6 °F 93% 30.46 in 10.0 mi Calm Calm - N/A   Clear
10:33 PM 19.4 °F - 15.8 °F 86% 30.47 in 10.0 mi Calm Calm - N/A   Clear
10:53 PM 19.4 °F - 17.6 °F 93% 30.47 in 10.0 mi Calm Calm - N/A   Clear
11:12 PM 19.4 °F - 17.6 °F 93% 30.47 in 10.0 mi Calm Calm - N/A   Clear
11:33 PM 17.6 °F - 15.8 °F 93% 30.48 in 10.0 mi Calm Calm - N/A   Clear
11:53 PM 17.6 °F 12.3 °F 15.8 °F 93% 30.49 in 10.0 mi NNW 3.5 mph - N/A   Clear